This demonstration page uses our WeatherBlox Daily Observations layout. Learn more.

Left ArrowRight Arrow

39.01783, -85.05884

Hourly Observations for August 18, 2016

Temp ( °F °C ) Dew Point ( °F °C ) Humidity (%) Winds ( mph kmh ) Pressure ( in mb ) Visibility ( mi km ) Precip ( " mm )
12:52 am 00:52 Mostly Cloudy 72 22.2 72 22.2 100 100 Calm 30.11 1020 7 11 0.00 0.00
1:52 am 01:52 Mostly Cloudy with Mist and Fog 72 22.2 72 22.2 100 100 SSW 3 6 30.10 1019 5 8 0.00 0.00
2:52 am 02:52 Partly Cloudy with Mist and Fog 71 21.7 71 21.7 100 100 Calm 30.10 1019 6 10 0.00 0.00
3:52 am 03:52 Mostly Cloudy with Fog 70 21.1 70 21.1 100 100 SSW 3 6 30.10 1019 0 0 0.00 0.00
4:11 am 04:11 Cloudy with Fog 70 21 70 21 100 100 Calm 30.09 1019 0 0 0.00 0.00
4:52 am 04:52 Mostly Cloudy with Fog 70 21.1 70 21.1 100 100 Calm 30.10 1019 0 0 0.00 0.00
5:08 am 05:08 Mostly Cloudy with Fog 70 21 70 21 100 100 Calm 30.09 1019 0 0 0.00 0.00
5:25 am 05:25 Mostly Cloudy with Fog 70 21 70 21 100 100 Calm 30.09 1019 0 0 0.00 0.00
5:52 am 05:52 Mostly Cloudy with Fog 70 21.1 70 21.1 100 100 Calm 30.10 1019 0 0 0.00 0.00
6:21 am 06:21 Mostly Cloudy with Fog 72 22 72 22 100 100 Calm 30.12 1020 0 0 0.00 0.00
6:52 am 06:52 Mostly Cloudy with Fog 71 21.7 71 21.7 100 100 Calm 30.12 1020 0 0 0.00 0.00
7:52 am 07:52 Mostly Cloudy with Fog 71 21.7 71 21.7 100 100 WSW 3 6 30.12 1020 0 0 0.00 0.00
8:52 am 08:52 Cloudy with Fog 71 21.7 71 21.7 100 100 Calm 30.12 1020 0 0 0.00 0.00
9:27 am 09:27 Cloudy with Mist and Fog 72 22 72 22 100 100 Calm 30.12 1020 1 2 0.00 0.00
9:32 am 09:32 Cloudy with Mist and Fog 72 22 72 22 100 100 Calm 30.12 1020 2 3 0.00 0.00
9:52 am 09:52 Cloudy with Mist and Fog 72 22.2 72 22.2 100 100 Calm 30.12 1020 3 5 0.00 0.00
10:34 am 10:34 Mostly Cloudy 75 24 72 22 89 89 Calm 30.12 1020 7 11 0.00 0.00
10:52 am 10:52 Mostly Cloudy 76 24.4 72 22.2 88 88 S 5 7 30.12 1020 8 13 0.00 0.00
11:52 am 11:52 Mostly Cloudy 79 26.1 70 21.1 74 74 Calm 30.11 1020 9 14 0.00 0.00
12:32 pm 12:32 Mostly Cloudy 79 26 70 21 74 74 Calm 30.09 1019 9 14 0.00 0.00
12:52 pm 12:52 Mostly Cloudy 80 26.7 70 21.1 71 71 W 7 11 30.10 1019 10 16 0.00 0.00
1:52 pm 13:52 Partly Cloudy 83 28.3 68 20 61 61 Calm 30.08 1019 9 14 0.00 0.00
2:52 pm 14:52 Mostly Cloudy 83 28.3 68 20 61 61 SSE 5 7 30.06 1018 10 16 0.00 0.00
3:52 pm 15:52 Mostly Cloudy 84 28.9 70 21.1 63 63 S 7 11 30.04 1017 9 14 0.00 0.00
4:52 pm 16:52 Mostly Cloudy 84 28.9 69 20.6 61 61 SSW 8 13 30.01 1016 10 16 0.00 0.00
5:52 pm 17:52 Mostly Cloudy 83 28.3 72 22.2 70 70 SSW 8 13 30.01 1016 8 13 0.00 0.00
6:52 pm 18:52 Mostly Cloudy 81 27.2 71 21.7 72 72 SSW 7 11 30.01 1016 8 13 0.00 0.00
7:52 pm 19:52 Mostly Cloudy 78 25.6 71 21.7 79 79 SW 7 11 30.02 1017 8 13 0.00 0.00
8:52 pm 20:52 Mostly Cloudy 76 24.4 72 22.2 88 88 S 5 7 30.00 1016 8 13 0.00 0.00
9:52 pm 21:52 Mostly Cloudy 75 23.9 72 22.2 90 90 SSW 6 9 30.01 1016 7 11 0.00 0.00
10:52 pm 22:52 Partly Cloudy 74 23.3 72 22.2 94 94 SSW 6 9 30.01 1016 7 11 0.00 0.00
11:52 pm 23:52 Mostly Cloudy 74 23.3 72 22.2 94 94 WSW 3 6 30.02 1017 7 11 0.00 0.00

Powered by AerisWeather